ARG1600 SABE-SAOU

Flight info

Callsign ARG1600
Flight time 1h 14m
Altitude 34000
Route PAL9 PAL DCT NEPIS DCT NIN UL405 RYD DCT FRAGA DCT ILSEN
Aircraft E190/M-SDE3GILORVW/S

Departure

Time 2026-05-05 22:00
Airport Aeroparque Jorge Newbery (SABE)

Arrival

Time 2026-05-05 23:14
Airport Brigadier Mayor D Cesar Raul Ojeda Airport (SAOU)
Time Latitude Longitude Altitude Speed Heading
2026-05-05 21:27 -34.55796 -58.41249 26 ft 0 kts 37°
2026-05-05 21:27 -34.55800 -58.41251 26 ft 0 kts 36°
2026-05-05 21:51 -34.55812 -58.41262 29 ft 4 kts 33°
2026-05-05 21:51 -34.55833 -58.41275 26 ft 4 kts 345°
2026-05-05 21:51 -34.55847 -58.41259 29 ft 4 kts 301°
2026-05-05 21:52 -34.55862 -58.41231 28 ft 0 kts 306°
2026-05-05 21:54 -34.55862 -58.41232 24 ft 0 kts 306°
2026-05-05 21:54 -34.55857 -58.41240 24 ft 2 kts 306°
2026-05-05 21:55 -34.55851 -58.41259 24 ft 2 kts 274°
2026-05-05 21:55 -34.55860 -58.41276 24 ft 3 kts 231°
2026-05-05 21:55 -34.55881 -58.41293 24 ft 4 kts 212°
2026-05-05 21:55 -34.55906 -58.41320 25 ft 5 kts 241°
2026-05-05 21:56 -34.55898 -58.41365 24 ft 6 kts 295°
2026-05-05 21:56 -34.55877 -58.41415 24 ft 7 kts 297°
2026-05-05 21:56 -34.55851 -58.41476 24 ft 9 kts 297°
2026-05-05 21:56 -34.55821 -58.41549 24 ft 10 kts 297°
2026-05-05 21:57 -34.55786 -58.41632 26 ft 12 kts 296°
2026-05-05 21:57 -34.55747 -58.41726 27 ft 13 kts 296°
2026-05-05 21:57 -34.55698 -58.41824 25 ft 14 kts 304°
2026-05-05 21:57 -34.55641 -58.41927 25 ft 15 kts 304°
2026-05-05 21:58 -34.55578 -58.42038 25 ft 17 kts 307°
2026-05-05 21:58 -34.55510 -58.42151 25 ft 16 kts 308°
2026-05-05 21:58 -34.55440 -58.42262 26 ft 17 kts 307°
2026-05-05 21:58 -34.55384 -58.42352 24 ft 12 kts 306°
2026-05-05 21:59 -34.55360 -58.42447 24 ft 12 kts 277°
2026-05-05 21:59 -34.55410 -58.42495 25 ft 10 kts 145°
2026-05-05 21:59 -34.55436 -58.42454 25 ft 2 kts 123°
2026-05-05 21:59 -34.55475 -58.42382 26 ft 24 kts 123°
2026-05-05 22:00 -34.55633 -58.42101 26 ft 56 kts 124°
2026-05-05 22:00 -34.55921 -58.41582 22 ft 107 kts 123°
2026-05-05 22:00 -34.56467 -58.40611 267 ft 161 kts 124°
2026-05-05 22:00 -34.57180 -58.39354 990 ft 193 kts 123°
2026-05-05 22:01 -34.57846 -58.37882 2073 ft 207 kts 106°
2026-05-05 22:01 -34.57884 -58.36028 2742 ft 248 kts 72°
2026-05-05 22:01 -34.57010 -58.34157 3672 ft 260 kts 50°
2026-05-05 22:01 -34.55763 -58.32539 4608 ft 265 kts 37°
2026-05-05 22:02 -34.54193 -58.31303 5533 ft 274 kts 24°
2026-05-05 22:02 -34.52418 -58.30573 6571 ft 269 kts
2026-05-05 22:02 -34.50571 -58.30813 7502 ft 269 kts 339°
2026-05-05 22:02 -34.48911 -58.31878 8386 ft 274 kts 319°
2026-05-05 22:03 -34.47662 -58.33626 9323 ft 279 kts 298°
2026-05-05 22:03 -34.47048 -58.35874 10183 ft 286 kts 276°
2026-05-05 22:03 -34.47275 -58.38349 10622 ft 308 kts 249°
2026-05-05 22:03 -34.48115 -58.40753 11339 ft 311 kts 256°
2026-05-05 22:04 -34.48366 -58.43343 12422 ft 310 kts 268°
2026-05-05 22:04 -34.48468 -58.45966 13471 ft 314 kts 267°
2026-05-05 22:04 -34.48702 -58.48613 14506 ft 316 kts 264°
2026-05-05 22:04 -34.48980 -58.51261 15590 ft 317 kts 264°
2026-05-05 22:05 -34.49253 -58.53890 16582 ft 320 kts 264°
2026-05-05 22:05 -34.49529 -58.56590 17554 ft 323 kts 264°
2026-05-05 22:05 -34.49811 -58.59300 18473 ft 325 kts 263°
2026-05-05 22:05 -34.50139 -58.62025 19235 ft 329 kts 262°
2026-05-05 22:06 -34.50559 -58.64787 19897 ft 337 kts 259°
2026-05-05 22:06 -34.51110 -58.67586 20564 ft 344 kts 256°
2026-05-05 22:06 -34.51814 -58.70375 21333 ft 347 kts 252°
2026-05-05 22:06 -34.52782 -58.73047 22331 ft 344 kts 241°
2026-05-05 22:07 -34.54207 -58.75399 23072 ft 350 kts 233°
2026-05-05 22:07 -34.55760 -58.77691 23595 ft 356 kts 235°
2026-05-05 22:07 -34.57168 -58.80198 24038 ft 360 kts 242°
2026-05-05 22:07 -34.58267 -58.82929 24576 ft 361 kts 250°
2026-05-05 22:08 -34.59039 -58.85809 25139 ft 362 kts 257°
2026-05-05 22:08 -34.59749 -58.88756 25684 ft 365 kts 252°
2026-05-05 22:08 -34.60507 -58.91715 26186 ft 368 kts 258°
2026-05-05 22:08 -34.60758 -58.94818 26684 ft 371 kts 271°
2026-05-05 22:09 -34.60503 -58.97940 27207 ft 374 kts 277°
2026-05-05 22:09 -34.60113 -59.01038 27674 ft 377 kts 277°
2026-05-05 22:09 -34.59803 -59.04214 28149 ft 379 kts 274°
2026-05-05 22:09 -34.59639 -59.07417 28635 ft 381 kts 271°
2026-05-05 22:10 -34.59556 -59.10646 29050 ft 384 kts 271°
2026-05-05 22:10 -34.59471 -59.13896 29485 ft 387 kts 271°
2026-05-05 22:10 -34.59340 -59.17172 29894 ft 389 kts 272°
2026-05-05 22:10 -34.59171 -59.20455 30268 ft 391 kts 272°
2026-05-05 22:11 -34.58989 -59.23754 30680 ft 391 kts 272°
2026-05-05 22:11 -34.58815 -59.27054 31096 ft 391 kts 272°
2026-05-05 22:11 -34.58653 -59.30335 31494 ft 391 kts 272°
2026-05-05 22:11 -34.58496 -59.33619 31960 ft 389 kts 272°
2026-05-05 22:12 -34.58335 -59.36919 32366 ft 389 kts 272°
2026-05-05 22:12 -34.58170 -59.40181 32903 ft 385 kts 273°
2026-05-05 22:12 -34.58004 -59.43398 33429 ft 381 kts 273°
2026-05-05 22:12 -34.57836 -59.46595 33859 ft 379 kts 273°
2026-05-05 22:13 -34.57670 -59.49747 34042 ft 372 kts 273°
2026-05-05 22:13 -34.57505 -59.52830 33844 ft 358 kts 273°
2026-05-05 22:13 -34.57346 -59.55800 34014 ft 359 kts 273°
2026-05-05 22:14 -34.57021 -59.61997 33968 ft 375 kts 272°
2026-05-05 22:14 -34.56922 -59.68342 33931 ft 377 kts 270°
2026-05-05 22:15 -34.56875 -59.74731 33936 ft 377 kts 271°
2026-05-05 22:15 -34.56739 -59.81086 33932 ft 377 kts 271°
2026-05-05 22:16 -34.56609 -59.87411 33931 ft 377 kts 271°
2026-05-05 22:16 -34.56491 -59.93754 33925 ft 375 kts 271°
2026-05-05 22:17 -34.56365 -60.00101 33938 ft 376 kts 271°
2026-05-05 22:17 -34.56233 -60.06441 33930 ft 376 kts 271°
2026-05-05 22:18 -34.56100 -60.12776 33928 ft 376 kts 271°
2026-05-05 22:18 -34.55963 -60.19111 33931 ft 375 kts 271°
2026-05-05 22:19 -34.55823 -60.25442 33901 ft 375 kts 271°
2026-05-05 22:19 -34.55680 -60.31802 33924 ft 377 kts 271°
2026-05-05 22:20 -34.55533 -60.38156 33924 ft 377 kts 271°
2026-05-05 22:20 -34.55382 -60.44532 33921 ft 377 kts 271°
2026-05-05 22:21 -34.55229 -60.50834 33915 ft 375 kts 271°
2026-05-05 22:21 -34.55074 -60.57147 33917 ft 375 kts 271°
2026-05-05 22:22 -34.54914 -60.63477 33918 ft 375 kts 271°
2026-05-05 22:22 -34.54750 -60.69814 33916 ft 375 kts 271°
2026-05-05 22:23 -34.54586 -60.76138 33931 ft 374 kts 271°
2026-05-05 22:23 -34.54418 -60.82427 33916 ft 373 kts 271°
2026-05-05 22:24 -34.54246 -60.88710 33910 ft 373 kts 271°
2026-05-05 22:24 -34.53787 -60.94958 33925 ft 374 kts 279°
2026-05-05 22:25 -34.52889 -61.01152 33875 ft 374 kts 278°
2026-05-05 22:25 -34.51977 -61.07388 33886 ft 373 kts 279°
2026-05-05 22:26 -34.51005 -61.13523 33907 ft 373 kts 279°
2026-05-05 22:26 -34.50041 -61.19711 33907 ft 373 kts 279°
2026-05-05 22:27 -34.49090 -61.25869 33906 ft 373 kts 279°
2026-05-05 22:27 -34.48125 -61.32048 33905 ft 373 kts 279°
2026-05-05 22:28 -34.47157 -61.38216 33898 ft 370 kts 279°
2026-05-05 22:28 -34.46194 -61.44353 33903 ft 371 kts 279°
2026-05-05 22:29 -34.45227 -61.50485 33902 ft 371 kts 279°
2026-05-05 22:29 -34.44256 -61.56615 33882 ft 372 kts 279°
2026-05-05 22:30 -34.43262 -61.62801 33899 ft 373 kts 279°
2026-05-05 22:30 -34.42269 -61.68968 33899 ft 373 kts 279°
2026-05-05 22:31 -34.41273 -61.75135 33897 ft 373 kts 279°
2026-05-05 22:31 -34.40282 -61.81260 33895 ft 373 kts 279°
2026-05-05 22:32 -34.39445 -61.86417 33899 ft 373 kts 279°
2026-05-05 22:32 -34.38440 -61.92584 33907 ft 373 kts 279°
2026-05-05 22:33 -34.37451 -61.98630 33892 ft 364 kts 279°
2026-05-05 22:33 -34.36462 -62.04676 33898 ft 366 kts 279°
2026-05-05 22:34 -34.35468 -62.10715 33894 ft 366 kts 279°
2026-05-05 22:34 -34.34470 -62.16765 33892 ft 368 kts 279°
2026-05-05 22:35 -34.33465 -62.22836 33914 ft 367 kts 280°
2026-05-05 22:35 -34.32473 -62.28813 33893 ft 364 kts 280°
2026-05-05 22:36 -34.31471 -62.34837 33894 ft 365 kts 280°
2026-05-05 22:36 -34.30461 -62.40887 33893 ft 365 kts 280°
2026-05-05 22:37 -34.29460 -62.46861 33892 ft 365 kts 280°
2026-05-05 22:37 -34.28451 -62.52866 33921 ft 364 kts 280°
2026-05-05 22:38 -34.27443 -62.58841 33892 ft 362 kts 280°
2026-05-05 22:38 -34.26436 -62.64799 33888 ft 362 kts 280°
2026-05-05 22:39 -34.25423 -62.70771 33909 ft 363 kts 280°
2026-05-05 22:39 -34.24407 -62.76742 33893 ft 363 kts 280°
2026-05-05 22:40 -34.23387 -62.82718 33894 ft 363 kts 280°
2026-05-05 22:40 -34.22386 -62.88576 33891 ft 360 kts 280°
2026-05-05 22:41 -34.21368 -62.94511 33887 ft 361 kts 280°
2026-05-05 22:41 -34.20345 -63.00448 33887 ft 361 kts 280°
2026-05-05 22:42 -34.19320 -63.06378 33887 ft 361 kts 280°
2026-05-05 22:42 -34.18291 -63.12314 33885 ft 361 kts 280°
2026-05-05 22:43 -34.17264 -63.18228 33883 ft 360 kts 281°
2026-05-05 22:43 -34.16231 -63.24157 33882 ft 360 kts 281°
2026-05-05 22:44 -34.15202 -63.30039 33880 ft 360 kts 281°
2026-05-05 22:44 -34.14165 -63.35956 33884 ft 360 kts 281°
2026-05-05 22:45 -34.13047 -63.41844 33886 ft 360 kts 282°
2026-05-05 22:45 -34.11849 -63.47714 33879 ft 360 kts 282°
2026-05-05 22:46 -34.10694 -63.53602 33878 ft 360 kts 282°
2026-05-05 22:46 -34.09546 -63.59469 33880 ft 360 kts 282°
2026-05-05 22:47 -34.08378 -63.65361 33879 ft 360 kts 282°
2026-05-05 22:47 -34.07213 -63.71230 33878 ft 360 kts 282°
2026-05-05 22:48 -34.06046 -63.77106 33876 ft 361 kts 282°
2026-05-05 22:48 -34.04875 -63.82974 33898 ft 359 kts 282°
2026-05-05 22:49 -34.03704 -63.88829 33884 ft 359 kts 282°
2026-05-05 22:49 -34.02535 -63.94671 33879 ft 359 kts 282°
2026-05-05 22:50 -34.01361 -64.00533 33880 ft 359 kts 282°
2026-05-05 22:50 -34.00186 -64.06377 33885 ft 359 kts 283°
2026-05-05 22:51 -33.99008 -64.12219 33881 ft 359 kts 283°
2026-05-05 22:51 -33.97827 -64.18062 33878 ft 359 kts 283°
2026-05-05 22:52 -33.96641 -64.23914 33873 ft 359 kts 283°
2026-05-05 22:52 -33.95455 -64.29756 33877 ft 359 kts 283°
2026-05-05 22:53 -33.94270 -64.35571 33848 ft 358 kts 283°
2026-05-05 22:53 -33.93083 -64.41380 33881 ft 357 kts 283°
2026-05-05 22:54 -33.91894 -64.47189 33879 ft 357 kts 283°
2026-05-05 22:54 -33.90703 -64.52996 33886 ft 357 kts 283°
2026-05-05 22:55 -33.89504 -64.58805 33884 ft 357 kts 283°
2026-05-05 22:55 -33.88309 -64.64607 33886 ft 357 kts 283°
2026-05-05 22:56 -33.87110 -64.70404 33885 ft 357 kts 283°
2026-05-05 22:56 -33.85908 -64.76203 33884 ft 357 kts 283°
2026-05-05 22:57 -33.84705 -64.81990 33884 ft 357 kts 283°
2026-05-05 22:57 -33.83492 -64.87796 33890 ft 357 kts 283°
2026-05-05 22:58 -33.82282 -64.93590 33887 ft 357 kts 283°
2026-05-05 22:58 -33.81075 -64.99349 33894 ft 357 kts 283°
2026-05-05 22:59 -33.79860 -65.05130 33892 ft 357 kts 283°
2026-05-05 22:59 -33.78640 -65.10921 33892 ft 357 kts 283°
2026-05-05 23:00 -33.76808 -65.19592 33891 ft 357 kts 284°
2026-05-05 23:00 -33.75583 -65.25364 33891 ft 357 kts 284°
2026-05-05 23:01 -33.74354 -65.31153 33943 ft 358 kts 284°
2026-05-05 23:01 -33.73122 -65.36934 33940 ft 358 kts 284°
2026-05-05 23:02 -33.71848 -65.42711 33941 ft 358 kts 285°
2026-05-05 23:02 -33.70522 -65.48453 33976 ft 356 kts 285°
2026-05-05 23:03 -33.69212 -65.54196 33948 ft 357 kts 285°
2026-05-05 23:03 -33.67917 -65.59880 33892 ft 340 kts 285°
2026-05-05 23:04 -33.67317 -65.62507 33858 ft 324 kts 285°
2026-05-05 23:04 -33.66722 -65.65109 33941 ft 318 kts 285°
2026-05-05 23:04 -33.65524 -65.70343 33927 ft 328 kts 285°
2026-05-05 23:05 -33.64322 -65.75579 33870 ft 327 kts 285°
2026-05-05 23:05 -33.63112 -65.80837 33884 ft 327 kts 285°
2026-05-05 23:06 -33.61897 -65.86105 33886 ft 327 kts 285°
2026-05-05 23:06 -33.60680 -65.91371 33880 ft 328 kts 285°
2026-05-05 23:07 -33.60061 -65.94046 32733 ft 343 kts 285°
2026-05-05 23:07 -33.59404 -65.96884 31049 ft 363 kts 285°
2026-05-05 23:07 -33.58709 -65.99883 29241 ft 383 kts 285°
2026-05-05 23:07 -33.57973 -66.03027 27227 ft 399 kts 286°
2026-05-05 23:08 -33.57016 -66.06216 25331 ft 411 kts 291°
2026-05-05 23:08 -33.55832 -66.09359 24188 ft 411 kts 294°
2026-05-05 23:08 -33.54650 -66.12445 23189 ft 401 kts 293°
2026-05-05 23:08 -33.53551 -66.15496 21928 ft 395 kts 292°
2026-05-05 23:09 -33.52538 -66.18449 20469 ft 374 kts 291°
2026-05-05 23:09 -33.51589 -66.21285 18903 ft 362 kts 291°
2026-05-05 23:09 -33.50662 -66.24051 17092 ft 356 kts 291°
2026-05-05 23:09 -33.49744 -66.26768 15121 ft 357 kts 292°
2026-05-05 23:10 -33.48797 -66.29533 12965 ft 361 kts 292°
2026-05-05 23:10 -33.47776 -66.32284 10682 ft 350 kts 296°
2026-05-05 23:10 -33.46697 -66.34819 8683 ft 337 kts 298°
2026-05-05 23:10 -33.45601 -66.37195 7476 ft 308 kts 304°
2026-05-05 23:11 -33.44169 -66.38869 6630 ft 277 kts 332°
2026-05-05 23:11 -33.42387 -66.39337 5998 ft 253 kts
2026-05-05 23:11 -33.40840 -66.38624 5440 ft 235 kts 31°
2026-05-05 23:11 -33.39531 -66.37543 4857 ft 223 kts 31°
2026-05-05 23:12 -33.38162 -66.36745 4156 ft 218 kts 17°
2026-05-05 23:12 -33.36664 -66.36443 3564 ft 216 kts
2026-05-05 23:12 -33.35212 -66.36501 3303 ft 200 kts 359°
2026-05-05 23:12 -33.33915 -66.36578 3120 ft 174 kts
2026-05-05 23:13 -33.32771 -66.36521 2915 ft 155 kts 11°
2026-05-05 23:13 -33.31760 -66.36289 2690 ft 143 kts 15°
2026-05-05 23:13 -33.30801 -66.36139 2633 ft 137 kts
2026-05-05 23:13 -33.29847 -66.36019 2550 ft 139 kts 11°
2026-05-05 23:14 -33.28921 -66.35869 2377 ft 126 kts 12°
2026-05-05 23:14 -33.28143 -66.35757 2308 ft 90 kts
2026-05-05 23:14 -33.27674 -66.35695 2309 ft 56 kts
2026-05-05 23:14 -33.27332 -66.35648 2311 ft 40 kts
2026-05-05 23:15 -33.27148 -66.35626 2304 ft 19 kts
2026-05-05 23:15 -33.27117 -66.35585 2307 ft 5 kts 110°
2026-05-05 23:15 -33.27144 -66.35550 2305 ft 7 kts 148°
2026-05-05 23:15 -33.27184 -66.35514 2301 ft 8 kts 142°
2026-05-05 23:16 -33.27237 -66.35466 2300 ft 9 kts 142°
2026-05-05 23:16 -33.27278 -66.35426 2307 ft 0 kts 142°
2026-05-05 23:17 -33.27280 -66.35425 2306 ft 1 kts 142°
2026-05-05 23:17 -33.27289 -66.35416 2300 ft 2 kts 142°
2026-05-05 23:17 -33.27309 -66.35397 2300 ft 5 kts 142°
2026-05-05 23:17 -33.27344 -66.35364 2310 ft 7 kts 140°
2026-05-05 23:18 -33.27389 -66.35320 2300 ft 9 kts 141°
2026-05-05 23:18 -33.27405 -66.35306 2306 ft 0 kts 142°
2026-05-05 23:18 -33.27407 -66.35304 2306 ft 1 kts 142°
2026-05-05 23:19 -33.27421 -66.35291 2304 ft 4 kts 142°
2026-05-05 23:19 -33.27447 -66.35266 2309 ft 6 kts 142°
2026-05-05 23:19 -33.27473 -66.35243 2300 ft 3 kts 142°
2026-05-05 23:19 -33.27473 -66.35242 2300 ft 0 kts 142°
2026-05-05 23:20 -33.27480 -66.35236 2308 ft 2 kts 142°
2026-05-05 23:20 -33.27501 -66.35216 2304 ft 5 kts 142°
2026-05-05 23:20 -33.27522 -66.35179 2304 ft 5 kts 111°
2026-05-05 23:20 -33.27530 -66.35144 2302 ft 5 kts 105°
2026-05-05 23:21 -33.27535 -66.35124 2304 ft 1 kts 105°
2026-05-05 23:21 -33.27536 -66.35122 2305 ft 0 kts 105°